• In Russia
  • List of Countries
  • For 7 days
  • Water Temperature
  • Satellite Maps
  • Weather Map
  • Weather Widgets
  • user-avatar
    Login

    Hourly Weather Krasnaya Sloboda

    Today, 18 June, Monday

    Time Temperature Precipitation Wind Pressure Humidity
    00:00 +18°C° 0.3 mm 2 mps 748 mmHg 96%
    01:00 +17°C° 0.3 mm 2 mps 748 mmHg 96%
    02:00 +18°C° 0 mm 1 mps 748 mmHg 96%
    03:00 +18°C° 0.3 mm 1 mps 748 mmHg 96%
    04:00 +18°C° 0.3 mm 1 mps 748 mmHg 96%
    05:00 +18°C° 0.3 mm 1 mps 748 mmHg 96%
    06:00 +20°C° 0 mm 1 mps 748 mmHg 93%
    07:00 +21°C° 0 mm 1 mps 748 mmHg 90%
    08:00 +22°C° 0 mm 1 mps 748 mmHg 87%
    09:00 +23°C° 0.2 mm 1 mps 748 mmHg 83%
    10:00 +24°C° 0.2 mm 2 mps 748 mmHg 80%
    11:00 +25°C° 0.2 mm 2 mps 748 mmHg 76%
    12:00 +26°C° 0.3 mm 2 mps 748 mmHg 73%
    13:00 +26°C° 0.3 mm 2 mps 748 mmHg 69%
    14:00 +27°C° 0.3 mm 2 mps 748 mmHg 65%
    15:00 +27°C° 0.2 mm 2 mps 748 mmHg 66%
    16:00 +27°C° 0.2 mm 2 mps 748 mmHg 67%
    17:00 +27°C° 0.2 mm 2 mps 748 mmHg 68%
    18:00 +25°C° 0.1 mm 1 mps 748 mmHg 73%
    19:00 +24°C° 0.1 mm 1 mps 748 mmHg 78%
    20:00 +22°C° 0.1 mm 1 mps 748 mmHg 83%
    21:00 +21°C° 0.1 mm 1 mps 748 mmHg 85%
    22:00 +21°C° 0.1 mm 1 mps 748 mmHg 87%
    23:00 +20°C° 0.1 mm 1 mps 748 mmHg 88%

    Tomorrow, 19 June, Tuesday

    Time Temperature Precipitation Wind Pressure Humidity
    00:00 +20°C° 0.1 mm 1 mps 748 mmHg 89%
    01:00 +19°C° 0.1 mm 1 mps 748 mmHg 89%
    02:00 +19°C° 0.1 mm 1 mps 748 mmHg 89%
    03:00 +19°C° 0 mm 1 mps 748 mmHg 89%
    04:00 +19°C° 0 mm 1 mps 749 mmHg 90%
    05:00 +20°C° 0 mm 1 mps 749 mmHg 90%
    06:00 +20°C° 0.2 mm 2 mps 749 mmHg 86%
    07:00 +21°C° 0.2 mm 2 mps 749 mmHg 81%
    08:00 +24°C° 0.2 mm 2 mps 749 mmHg 77%
    09:00 +25°C° 0.2 mm 3 mps 749 mmHg 72%
    10:00 +26°C° 0.2 mm 3 mps 749 mmHg 67%
    11:00 +27°C° 0.2 mm 3 mps 749 mmHg 62%
    12:00 +27°C° 0.2 mm 3 mps 749 mmHg 62%
    13:00 +28°C° 0.2 mm 3 mps 749 mmHg 62%
    14:00 +28°C° 0.2 mm 3 mps 748 mmHg 61%
    15:00 +28°C° 0.2 mm 3 mps 748 mmHg 63%
    16:00 +27°C° 0.2 mm 3 mps 748 mmHg 64%
    17:00 +27°C° 0.2 mm 3 mps 748 mmHg 66%
    18:00 +26°C° 0.1 mm 3 mps 748 mmHg 71%
    19:00 +24°C° 0.1 mm 2 mps 748 mmHg 75%
    20:00 +21°C° 0.1 mm 2 mps 748 mmHg 79%
    21:00 +20°C° 0 mm 2 mps 748 mmHg 80%
    22:00 +19°C° 0 mm 2 mps 748 mmHg 81%
    23:00 +18°C° 0 mm 2 mps 749 mmHg 82%

    Day after tomorrow, 20 June, Wednesday

    Time Temperature Precipitation Wind Pressure Humidity
    00:00 +17°C° 0 mm 2 mps 749 mmHg 84%
    01:00 +17°C° 0 mm 2 mps 749 mmHg 86%
    02:00 +16°C° 0 mm 2 mps 749 mmHg 87%
    03:00 +16°C° 0 mm 2 mps 749 mmHg 89%
    04:00 +16°C° 0 mm 2 mps 750 mmHg 90%
    05:00 +16°C° 0 mm 2 mps 750 mmHg 91%
    06:00 +18°C° 0 mm 3 mps 750 mmHg 85%
    07:00 +19°C° 0 mm 3 mps 750 mmHg 79%
    08:00 +20°C° 0 mm 3 mps 750 mmHg 72%
    09:00 +21°C° 0 mm 3 mps 750 mmHg 69%
    10:00 +22°C° 0 mm 4 mps 750 mmHg 65%
    11:00 +25°C° 0 mm 4 mps 750 mmHg 62%
    12:00 +25°C° 0 mm 4 mps 750 mmHg 60%
    13:00 +25°C° 0 mm 5 mps 750 mmHg 58%
    14:00 +26°C° 0 mm 5 mps 750 mmHg 55%
    15:00 +26°C° 0 mm 4 mps 750 mmHg 56%
    16:00 +25°C° 0 mm 4 mps 750 mmHg 57%
    17:00 +25°C° 0 mm 4 mps 750 mmHg 57%
    18:00 +22°C° 0 mm 3 mps 750 mmHg 63%
    19:00 +21°C° 0 mm 3 mps 750 mmHg 69%
    20:00 +19°C° 0 mm 2 mps 750 mmHg 74%
    21:00 +18°C° 0 mm 2 mps 750 mmHg 76%
    22:00 +17°C° 0 mm 2 mps 750 mmHg 78%
    23:00 +16°C° 0 mm 2 mps 751 mmHg 80%

    21 June, Thursday

    Time Temperature Precipitation Wind Pressure Humidity
    00:00 +15°C° 0 mm 2 mps 750 mmHg 82%
    01:00 +14°C° 0 mm 2 mps 750 mmHg 84%
    02:00 +14°C° 0 mm 2 mps 750 mmHg 86%
    03:00 +14°C° 0 mm 2 mps 750 mmHg 86%
    04:00 +14°C° 0 mm 1 mps 750 mmHg 86%
    05:00 +14°C° 0 mm 1 mps 750 mmHg 86%
    06:00 +16°C° 0 mm 1 mps 750 mmHg 79%
    07:00 +19°C° 0 mm 1 mps 750 mmHg 72%
    08:00 +21°C° 0 mm 1 mps 750 mmHg 65%
    09:00 +21°C° 0 mm 2 mps 750 mmHg 60%
    10:00 +23°C° 0 mm 2 mps 750 mmHg 54%
    11:00 +25°C° 0 mm 2 mps 749 mmHg 49%
    12:00 +25°C° 0 mm 2 mps 749 mmHg 48%
    13:00 +26°C° 0 mm 2 mps 748 mmHg 46%
    14:00 +27°C° 0 mm 2 mps 748 mmHg 45%
    15:00 +27°C° 0 mm 2 mps 747 mmHg 48%
    16:00 +27°C° 0 mm 2 mps 747 mmHg 50%
    17:00 +27°C° 0 mm 2 mps 746 mmHg 53%
    18:00 +25°C° 0 mm 2 mps 746 mmHg 59%
    19:00 +22°C° 0 mm 3 mps 746 mmHg 66%
    20:00 +21°C° 0 mm 3 mps 745 mmHg 73%
    21:00 +20°C° 0 mm 3 mps 745 mmHg 72%
    22:00 +20°C° 0 mm 4 mps 745 mmHg 72%
    23:00 +19°C° 0 mm 4 mps 744 mmHg 71%

    22 June, Friday

    Time Temperature Precipitation Wind Pressure Humidity
    00:00 +19°C° 0 mm 4 mps 744 mmHg 73%
    01:00 +19°C° 0 mm 4 mps 743 mmHg 76%
    02:00 +19°C° 0 mm 4 mps 743 mmHg 78%
    03:00 +19°C° 0.2 mm 5 mps 742 mmHg 81%
    04:00 +19°C° 0.2 mm 5 mps 742 mmHg 84%
    05:00 +20°C° 0.2 mm 5 mps 741 mmHg 87%
    06:00 +21°C° 0.2 mm 5 mps 741 mmHg 85%
    07:00 +22°C° 0.2 mm 6 mps 741 mmHg 83%
    08:00 +23°C° 0.2 mm 6 mps 741 mmHg 82%
    09:00 +24°C° 1.2 mm 6 mps 741 mmHg 82%
    10:00 +24°C° 1.2 mm 6 mps 741 mmHg 82%
    11:00 +24°C° 1.2 mm 6 mps 741 mmHg 82%
    12:00 +25°C° 1 mm 5 mps 741 mmHg 81%
    13:00 +25°C° 1 mm 5 mps 741 mmHg 79%
    14:00 +25°C° 1 mm 4 mps 741 mmHg 78%
    15:00 +25°C° 0.3 mm 4 mps 741 mmHg 76%
    16:00 +24°C° 0.3 mm 3 mps 741 mmHg 74%
    17:00 +24°C° 0.3 mm 3 mps 741 mmHg 72%
    18:00 +22°C° 0.1 mm 3 mps 741 mmHg 72%
    19:00 +20°C° 0.1 mm 3 mps 741 mmHg 73%
    20:00 +19°C° 0.1 mm 3 mps 741 mmHg 73%
    21:00 +18°C° 0.2 mm 3 mps 742 mmHg 76%
    22:00 +17°C° 0.2 mm 3 mps 742 mmHg 79%
    23:00 +16°C° 0.2 mm 3 mps 742 mmHg 82%

    23 June, Saturday

    Time Temperature Precipitation Wind Pressure Humidity
    00:00 +14°C° 0.4 mm 3 mps 743 mmHg 85%
    01:00 +14°C° 0.4 mm 3 mps 743 mmHg 88%
    02:00 +14°C° 0.4 mm 2 mps 743 mmHg 91%
    03:00 +14°C° 0.4 mm 2 mps 743 mmHg 91%
    04:00 +14°C° 0.4 mm 2 mps 743 mmHg 91%
    05:00 +14°C° 0.4 mm 2 mps 744 mmHg 91%
    06:00 +14°C° 0.2 mm 2 mps 744 mmHg 88%
    07:00 +14°C° 0.2 mm 2 mps 744 mmHg 85%
    08:00 +15°C° 0.2 mm 2 mps 744 mmHg 82%
    09:00 +15°C° 0.3 mm 2 mps 744 mmHg 81%
    10:00 +15°C° 0.3 mm 2 mps 745 mmHg 80%
    11:00 +15°C° 0.3 mm 2 mps 745 mmHg 79%
    12:00 +15°C° 0.2 mm 2 mps 745 mmHg 75%
    13:00 +16°C° 0.2 mm 2 mps 745 mmHg 71%
    14:00 +16°C° 0.2 mm 2 mps 745 mmHg 68%
    15:00 +17°C° 0 mm 2 mps 745 mmHg 64%
    16:00 +19°C° 0 mm 1 mps 745 mmHg 61%
    17:00 +20°C° 0 mm 1 mps 745 mmHg 57%
    18:00 +18°C° 0 mm 1 mps 745 mmHg 62%
    19:00 +16°C° 0 mm 2 mps 745 mmHg 68%
    20:00 +15°C° 0 mm 2 mps 745 mmHg 73%
    21:00 +14°C° 0 mm 2 mps 745 mmHg 77%
    22:00 +13°C° 0 mm 2 mps 745 mmHg 80%
    23:00 +12°C° 0 mm 2 mps 745 mmHg 83%
    Show more